Station 46080 (LLNR 982) - PORTLOCK BANK - 76 NM ENE of Kodiak, AK Image indicating link to RSS feed of recent meteorological observations for station 46080


Conditions at 46080 as of
(8:30 pm AKDT on 05/23/2024)
0430 GMT on 05/24/2024:
     

Click on the graph icon in the table below to see a time series plot of the last five days of that observation.

5-day plot - Wind Direction Wind Direction (WDIR): SW ( 220 deg true )
5-day plot - Wind Speed Wind Speed (WSPD): 13.6 kts
5-day plot - Wind Gust Wind Gust (GST): 17.5 kts
5-day plot - Atmospheric Pressure Atmospheric Pressure (PRES):29.98 in
5-day plot - Air Temperature Air Temperature (ATMP): 44.4 °F
5-day plot - Water Temperature Water Temperature (WTMP): 45.1 °F
5-day plot - Dew Point Dew Point (DEWP): 37.4 °F
5-day plot - Wind Chill Wind Chill (CHILL): 37.4 °F
5-day plot - Wind Speed at 10 Meters Wind Speed at 10 meters (WSPD10M): 15.5 kts
5-day plot - Wind Speed at 20 Meters Wind Speed at 20 meters (WSPD20M): 15.5 kts
5-day plot -  Wind Speed, Wind Gust and Atmospheric Pressure Combined plot of Wind Speed, Gust, and Air Pressure
Supplemental Measurements
Lowest 1-minute Pressure
Time (AKDT)Pressure
8:30 pm29.98 in
Highest 1-minute Wind Speed
Time (AKDT)5-day plot - 1-Minute Wind Speed WSPD 5-day plot - 1-Minute Wind Direction WDIR
8:29 pm 15.5 kts SW ( 220 deg true )
Previous observations
TIME
(AKDT)
5-day plot - Wind Direction
WDIR
 
5-day plot - Wind Speed
WSPD
kts
5-day plot - Wind Gust
GST
kts
5-day plot - Wave Height
WVHT
ft
5-day plot - Dominant Wave Period
DPD
sec
5-day plot - Average Wave Period
APD
sec
5-day plot - Mean Wave Direction
MWD
 
5-day plot - Atmospheric Pressure
PRES
in
5-day plot - Pressure Tendency
PTDY
in
5-day plot - Air Temperature
ATMP
°F
5-day plot - Water Temperature
WTMP
°F
5-day plot - Dew Point
DEWP
°F
5-day plot - Salinity
SAL
psu
5-day plot - Visibility
VIS
nmi
5-day plot - Tide (above MLLW)
TIDE
ft
2024-05-23 08:20 pm SW 13.6 15.5 6.6 65.7 W29.99- 44.2 45.1 37.2---
2024-05-23 08:10 pm SW 13.6 15.5 6.6-5.7 W29.98- 44.2 45.1 37.2---
2024-05-23 08:00 pm SW 13.6 15.5----29.98-0.01 44.4 45.1 36.9---
2024-05-23 07:50 pm SW 11.7 15.5 6.9 75.8 SW29.99- 44.2 45.1 37.2---
2024-05-23 07:40 pm SW 13.6 15.5 6.9-5.8 SW30.00- 44.1 45.1 37.9---
2024-05-23 07:30 pmWSW 11.7 15.5----29.99- 44.1 45.1 38.1---
2024-05-23 07:20 pmWSW 13.6 15.5 6.2 65.5WNW30.00- 44.1 45.1 38.7---
2024-05-23 07:10 pmWSW 13.6 15.5 6.2-5.5WNW30.00- 44.8 45.0 38.1---
2024-05-23 07:00 pmWSW 13.6 15.5----30.00+0.00 45.0 45.1 37.2---
2024-05-23 06:50 pmWSW 13.6 15.5 5.9 75.5 W29.99- 45.0 45.0 36.7---
2024-05-23 06:40 pmWSW 13.6 15.5 5.9-5.5 W29.99- 44.8 45.0 37.0---
2024-05-23 06:30 pmWSW 13.6 17.5----30.00- 44.8 45.1 37.2---
2024-05-23 06:20 pmWSW 15.5 19.4 6.6 75.7 W30.00- 44.8 45.1 37.4---
2024-05-23 06:10 pm W 15.5 19.4 6.6-5.7 W30.00- 44.6 45.1 37.6---
2024-05-23 06:00 pm W 13.6 15.5----30.00+0.01 44.4 45.1 37.6---
2024-05-23 05:50 pmWSW 13.6 15.5 6.2 75.5 W30.00- 44.4 45.1 37.9---
2024-05-23 05:40 pmWSW 11.7 13.6 6.2-5.5 W30.00- 44.2 45.1 37.4---
2024-05-23 05:30 pmWSW 11.7 13.6----29.99- 44.2 45.1 37.6---
2024-05-23 05:20 pm W 13.6 15.5 6.6 75.5 NW30.00- 44.2 45.1 37.6---
2024-05-23 05:10 pm W 13.6 15.5 6.6-5.5 NW30.00- 44.2 45.1 37.6---
2024-05-23 05:00 pm W 13.6 17.5----30.00+0.01 44.2 45.1 37.6---
2024-05-23 04:50 pm W 13.6 17.5 7.2 75.7WNW30.00- 44.2 45.1 37.4---
2024-05-23 04:40 pm W 13.6 17.5----30.00- 44.2 45.1 36.9---
2024-05-23 04:30 pm W 13.6 17.5----30.00- 44.2 45.1 36.7---
2024-05-23 04:20 pm W 13.6 17.5 7.2 85.8WNW30.00- 44.2 45.1 36.7---
2024-05-23 04:10 pm W 15.5 17.5 7.2-5.8WNW30.00- 44.2 45.1 36.5---
2024-05-23 04:00 pm W 15.5 17.5----30.00+0.01 44.2 45.0 36.5---
2024-05-23 03:50 pm W 15.5 19.4 7.2 75.7 W30.00- 44.1 45.0 36.1---
2024-05-23 03:40 pm W 15.5 19.4----30.00- 44.1- 36.1---
2024-05-23 03:10 pm W 17.5 21.4 7.2-5.7WSW29.99- 44.1 45.0 36.0---
2024-05-23 03:00 pm W 19.4 23.3----29.99+0.00 44.1- 36.3---
2024-05-23 02:50 pm W 17.5 23.3 7.5 86.0WNW30.00- 43.9 45.0 36.1---
2024-05-23 02:40 pm W 19.4 23.3 7.5-6.0WNW30.00- 43.9 45.0 36.1---
2024-05-23 02:30 pm W 21.4 25.3----30.00- 43.9 45.0 36.0---
2024-05-23 02:20 pm W 19.4 23.3 7.5 85.9WNW29.99- 43.9 45.0 35.8---
2024-05-23 02:10 pm W 19.4 21.4 7.5-5.9WNW29.99- 44.1 45.0 36.1---
2024-05-23 02:00 pm W 17.5 21.4----29.99+0.00 43.9 45.0 36.3---
2024-05-23 01:50 pm W 17.5 21.4 7.2 76.0WNW30.00- 43.7 45.0 36.9---
2024-05-23 01:40 pm W 17.5 21.4 7.2-6.0WNW29.99- 43.5 44.8 36.7---
2024-05-23 01:30 pm W 19.4 21.4----29.99- 43.3 44.8 36.5---
2024-05-23 01:20 pm W 17.5 23.3 7.2 75.9WNW29.99- 43.3 44.8 36.9---
2024-05-23 01:10 pm W 15.5 19.4 7.2-5.9WNW29.99- 43.3 44.8 37.2---
2024-05-23 01:00 pm W 19.4 23.3----29.98+0.00 43.3 44.8 37.0---
2024-05-23 12:50 pm W 17.5 21.4 7.5 86.1 W29.98- 43.2 44.8 37.0---
2024-05-23 12:40 pm W 17.5 21.4----29.98- 43.2 44.8 37.2---
2024-05-23 12:30 pm W 17.5 21.4----29.99- 43.2 44.8 37.6---
2024-05-23 12:20 pm W 19.4 25.3 7.5 75.9 W29.99- 43.2 44.8 37.4---
2024-05-23 12:10 pm W 19.4 23.3 7.5-5.9 W29.98- 43.0 44.8 37.0---
2024-05-23 12:00 pm W 19.4 23.3----29.99+0.02 43.0 44.8 37.4---
2024-05-23 11:50 am W 21.4 25.3 7.9 75.9WNW29.99- 43.0 44.8 36.9---
2024-05-23 11:40 am W 19.4 25.3 7.9-5.9WNW29.99- 43.0 44.8 36.7---
2024-05-23 11:30 am W 19.4 25.3----30.00- 43.0 44.8 37.2---
2024-05-23 11:20 am W 21.4 25.3 7.9 75.9WSW29.99- 43.0 44.8 37.0---
2024-05-23 11:10 am W 19.4 25.3 7.9-5.9WSW29.99- 43.0 44.8 37.0---
2024-05-23 11:00 am W 21.4 25.3----29.99+0.04 42.8 44.8 37.0---
2024-05-23 10:50 am W 19.4 23.3 8.2 65.7 W29.98- 42.8 44.8 37.2---
2024-05-23 10:40 am W 19.4 23.3 8.2-5.7 W29.98- 42.8 44.8 36.9---
2024-05-23 10:30 am W 19.4 25.3----29.98- 42.8 44.8 37.2---
2024-05-23 10:20 am W 21.4 25.3 6.9 75.6 W29.98- 42.8 44.8 37.0---
2024-05-23 10:10 am W 19.4 23.3 6.9-5.6 W29.98- 42.8 44.8 37.2---
2024-05-23 10:00 am W 19.4 25.3----29.98+0.02 42.8 44.8 36.7---
2024-05-23 09:50 am W 19.4 23.3 7.2 75.5WSW29.98- 42.8 44.8 37.0---
2024-05-23 09:40 am W 19.4 23.3----29.98- 42.8 44.8 37.4---
2024-05-23 09:30 am W 19.4 23.3----29.98- 42.8 44.8 37.0---
2024-05-23 09:20 am W 21.4 25.3 6.2 75.3WSW29.98- 42.8 44.8 36.9---
2024-05-23 09:10 am W 21.4 25.3 6.2-5.3WSW29.98- 42.8 44.8 36.5---
2024-05-23 09:00 am W 19.4 23.3----29.98+0.02 42.8 44.8 36.7---
2024-05-23 08:50 am W 19.4 25.3 7.2 75.4WSW29.98- 42.8 44.8 36.5---
2024-05-23 08:40 amWNW 21.4 25.3----29.97- 42.8 44.8 36.5---
2024-05-23 08:30 amWNW 21.4 25.3----29.96- 42.8 44.8 36.3---
2024-05-23 08:20 amWNW 21.4 25.3 7.2 75.2WSW29.97- 42.6 44.8 36.3---
2024-05-23 08:10 am W 19.4 25.3 7.2-5.2WSW29.97- 42.6 44.8 36.9---
2024-05-23 08:00 am W 19.4 25.3----29.96+0.01 42.6 44.8 36.5---
2024-05-23 07:50 am W 21.4 27.2 6.9 65.3 W29.96- 42.6 44.8 36.5---
2024-05-23 07:40 am W 19.4 23.3 6.9-5.3 W29.96- 42.6 44.8 36.7---
2024-05-23 07:30 am W 21.4 25.3----29.96- 42.8 44.8 36.7---
2024-05-23 07:20 am W 21.4 25.3 7.5 65.3 W29.96- 42.6 44.8 36.1---
2024-05-23 07:10 am W 21.4 25.3 7.5-5.3 W29.96- 42.6 44.8 36.3---
2024-05-23 07:00 am W 21.4 25.3----29.96+0.01 42.8 44.8 36.5---
2024-05-23 06:50 am W 23.3 27.2 7.2 65.2 W29.96- 42.6 44.8 36.3---
2024-05-23 06:40 am W 23.3 27.2 7.2-5.2 W29.96- 42.6 44.8 36.5---
2024-05-23 06:30 am W 23.3 27.2----29.96- 42.6 44.8 36.5---
2024-05-23 06:20 am W 21.4 25.3 6.6 65.1 W29.96- 42.6 44.8 36.9---
2024-05-23 06:10 am W 19.4 25.3 6.6-5.1 W29.96- 42.8 44.8 37.0---
2024-05-23 06:00 amWNW 21.4 25.3----29.96+0.02 42.8 44.8 36.9---
2024-05-23 05:50 am W 21.4 25.3 7.2 65.1 W29.96- 42.8 44.8 37.0---
2024-05-23 05:40 am W 21.4 25.3----29.96- 42.6 44.8 37.2---
2024-05-23 05:30 am W 21.4 25.3----29.96- 42.6 44.8 37.2---
2024-05-23 05:20 am W 21.4 25.3 7.2 75.3 W29.95- 42.6 44.8 37.2---
2024-05-23 05:10 am W 21.4 25.3 7.2-5.3 W29.96- 42.8 44.8 36.9---
2024-05-23 05:00 am W 21.4 25.3----29.95+0.01 42.8 44.8 36.7---
2024-05-23 04:50 am W 19.4 23.3 6.9 65.3 W29.95- 42.8 44.8 37.4---
2024-05-23 04:40 am W 19.4 23.3----29.95- 42.8 44.8 37.2---
2024-05-23 04:30 am W 19.4 23.3----29.95- 42.8 44.8 37.4---
2024-05-23 04:20 am W 21.4 25.3 7.9 65.5 W29.95- 42.8 44.8 37.2---
2024-05-23 04:10 am W 21.4 25.3 7.9-5.5 W29.95- 42.8 44.8 37.0---
2024-05-23 04:00 am W 21.4 25.3----29.95+0.02 42.8 44.8 37.2---
2024-05-23 03:50 am W 21.4 25.3 6.9 75.4 W29.95- 42.8 44.8 37.0---
2024-05-23 03:40 am W 21.4 27.2----29.95- 43.0 44.8 36.7---
2024-05-23 03:30 am W 25.3 29.1----29.95- 42.8 44.8 36.0---
2024-05-23 03:20 am W 23.3 27.2 6.9 65.3 W29.94- 42.8 44.8 36.3---
2024-05-23 03:10 am W 25.3 29.1 6.9-5.3 W29.94- 42.8 45.0 36.1---
2024-05-23 03:00 am W 25.3 29.1----29.94+0.01 43.0 45.0 36.1---
2024-05-23 02:50 am W 25.3 31.1 6.2 65.1WSW29.94- 43.0 45.0 36.0---
2024-05-23 02:40 am W 25.3 31.1 6.2-5.1WSW29.94- 43.2 45.0 36.0---
2024-05-23 02:30 am W 25.3 31.1----29.94- 43.3 45.0 35.6---
2024-05-23 02:20 am W 27.2 33.0 6.2 55.1WSW29.93- 43.5 45.0 35.4---
2024-05-23 02:10 am W 25.3 31.1 6.2-5.1WSW29.93- 43.7 45.0 35.8---
2024-05-23 02:00 amWNW 23.3 29.1----29.94+0.01 43.9 45.0 36.0---
2024-05-23 01:50 am W 23.3 27.2 5.2 55.1WSW29.93- 44.1 45.0 35.8---
2024-05-23 01:40 am W 23.3 29.1 5.2-5.1WSW29.93- 44.1 45.0 36.0---
2024-05-23 01:30 am W 23.3 29.1----29.93- 44.2 45.0 36.0---
2024-05-23 01:20 am W 23.3 29.1 5.2 75.2 S29.93- 44.2 45.0 35.6---
2024-05-23 01:10 am W 25.3 29.1 5.2-5.2 S29.93- 44.4 45.0 35.2---
2024-05-23 01:00 am W 23.3 27.2----29.93+0.01 44.4 45.0 36.7---
2024-05-23 12:50 am W 21.4 25.3 4.9 65.2 S29.93- 44.2 45.0 37.6---
2024-05-23 12:40 am W 19.4 23.3 4.9-5.2 S29.93- 44.4 45.0 38.7---
2024-05-23 12:30 am W 21.4 25.3----29.93- 44.2 45.0 38.1---
2024-05-23 12:20 am W 21.4 25.3 4.9 75.5SSW29.92- 44.4 45.0 37.9---
2024-05-23 12:10 am W 19.4 23.3 4.9-5.5SSW29.92- 44.6 45.0 38.1---
2024-05-23 12:00 am W 19.4 23.3----29.93+0.01 44.6 45.0 38.1---
2024-05-22 11:50 pm W 17.5 21.4 4.9 65.6SSW29.92- 44.8 45.0 38.7---
2024-05-22 11:40 pm W 13.6 19.4 4.9-5.6SSW29.92- 44.6 45.0 38.8---
2024-05-22 11:30 pm W 11.7 13.6----29.92- 44.4 45.0 38.5---
2024-05-22 11:20 pm W 11.7 13.6 5.2 76.0 S29.92- 44.4 45.1 38.3---
2024-05-22 11:10 pmWSW 9.7 11.7 5.2-6.0 S29.92- 44.2 45.1 39.0---
2024-05-22 11:00 pmWSW 11.7 13.6----29.92+0.02 44.2 45.1 39.2---
2024-05-22 10:50 pmWSW 11.7 13.6 4.9 65.7SSW29.92- 44.1 45.1 39.2---
2024-05-22 10:40 pmWSW 11.7 15.5 4.9-5.7SSW29.92- 44.2 45.1 39.4---
2024-05-22 10:30 pm W 11.7 13.6----29.92- 44.2 45.1 39.2---
2024-05-22 10:20 pm W 11.7 13.6 4.9 75.9 S29.91- 44.2 45.1 39.0---
2024-05-22 10:10 pm W 9.7 13.6 4.9-5.9 S29.91- 44.4 45.1 39.2---
2024-05-22 10:00 pm W 9.7 11.7----29.91+0.03 44.4 45.1 39.4---
2024-05-22 09:50 pm W 9.7 11.7 5.2 95.9 S29.91- 44.2 45.1 39.0---
2024-05-22 09:40 pm W 11.7 13.6----29.91- 44.2 45.1 39.2---
2024-05-22 09:30 pmWNW 9.7 11.7----29.91- 44.2 45.1 39.0---
2024-05-22 09:20 pmWNW 9.7 11.7 5.2 65.9SSE29.91- 44.4 45.1 39.0---
2024-05-22 09:10 pmWNW 9.7 11.7 5.2-5.9SSE29.91- 44.4 45.1 38.5---
2024-05-22 09:00 pmWNW 11.7 13.6----29.91+0.02 44.6 45.1 38.8---
2024-05-22 08:50 pmWNW 11.7 13.6 4.9 75.6SSW29.91- 44.6 45.1 38.7---
2024-05-22 08:40 pmWNW 11.7 13.6 4.9-5.6SSW29.91- 44.6 45.1 38.8---
2024-05-22 08:30 pmWNW 11.7 13.6----29.91- 44.8 45.1 39.2---
2024-05-22 08:20 pmWNW 13.6 15.5 5.2 65.8SSW29.91- 44.8- 38.8---
2024-05-22 08:10 pm W 13.6 15.5 5.2-5.8SSW29.91- 44.6 45.1 39.2---
2024-05-22 08:00 pm W 11.7 15.5----29.90+0.02 44.8 45.1 39.7---
2024-05-22 07:50 pm W 11.7 13.6 4.9 96.1SSW29.90- 44.8 45.1 39.4---

Detailed Wave Summary
for 46080 as of
(8:10 pm AKDT on 05/23/2024)
0410 GMT on 05/24/2024:

These wave data are displayed in rounded times.

     

Click on the graph icon in the table below to see a time series plot of the last five days of that observation.

5-day plot - Significant Wave Height Significant Wave Height (WVHT): 6.6 ft
5-day plot - Swell Height Swell Height (SwH): 3.9 ft
5-day plot - Swell Period Swell Period (SwP): 9.1 sec
5-day plot - Swell Direction Swell Direction (SwD):SSW
5-day plot - Wind Wave Height Wind Wave Height (WWH): 4.9 ft
5-day plot - Wind Wave Period Wind Wave Period (WWP): 6.2 sec
5-day plot - Wind Wave Direction Wind Wave Direction (WWD): W
5-day plot - Wave Steepness Wave Steepness (STEEPNESS):VERY_STEEP
5-day plot - Average Wave Period Average Wave Period (APD): 5.7 sec
Previous observations
TIME
(AKDT)
5-day plot - Wave Height
WVHT
ft
5-day plot - Swell Height
SwH
ft
5-day plot - Swell Period
SwP
sec
5-day plot - Swell Direction
SwD
 
5-day plot - Wind Wave Height
WWH
ft
5-day plot - Wind Wave Period
WWP
sec
5-day plot - Wind Wave Direction
WWD
 
5-day plot - Wave Steepness
STEEPNESS
 
5-day plot - Average Wave Period
APD
sec
2024-05-23 07:40 pm 6.9 5.2 7.1 SW 4.6 6.2 W STEEP 5.8
2024-05-23 07:10 pm 6.2 4.3 7.7SSW 4.3 6.2 WNWVERY_STEEP 5.5
2024-05-23 06:40 pm 5.9 3.6 8.3 SW 4.9 6.7 W STEEP 5.5
2024-05-23 06:10 pm 6.6 3.6 13.8 SW 5.6 6.7 W STEEP 5.7
2024-05-23 05:40 pm 6.2 4.9 6.7 W 3.6 5.0 W STEEP 5.5
2024-05-23 05:10 pm 6.6 4.3 9.1SSW 5.2 6.7 NW STEEP 5.5
2024-05-23 04:40 pm 7.2 4.6 16.0SSW 5.6 6.7 WNWVERY_STEEP 5.7
2024-05-23 04:10 pm 7.2 4.3 7.7WNW 5.9 6.2 W STEEP 5.8
2024-05-23 03:40 pm 7.2 3.3 16.0ESE 6.2 6.7 WVERY_STEEP 5.7
2024-05-23 03:10 pm 7.2 2.6 16.0 S 6.6 6.7 WSWVERY_STEEP 5.7
2024-05-23 02:40 pm 7.5 2.3 16.0NNW 7.2 7.7 WNW STEEP 6.0
2024-05-23 02:10 pm 7.5 2.0 16.0SSW 7.2 7.7 WNW STEEP 5.9
2024-05-23 01:40 pm 7.2 2.3 16.0SSW 6.9 7.1 WNW STEEP 6.0
2024-05-23 01:10 pm 7.2 3.3 14.8SSW 6.6 6.7 WNWVERY_STEEP 5.9
2024-05-23 12:40 pm 7.5 2.6 14.8SSE 7.2 7.7 W STEEP 6.1
2024-05-23 12:10 pm 7.5 2.6 17.4 SW 6.9 7.1 W STEEP 5.9
2024-05-23 11:40 am 7.9 2.3 14.8 SW 7.5 6.7 WNWVERY_STEEP 5.9
2024-05-23 11:10 am 7.9 2.6 17.4 S 7.2 6.7 WSWVERY_STEEP 5.9
2024-05-23 10:40 am 8.2 2.6 17.4WSW 7.5 6.2 WVERY_STEEP 5.7
2024-05-23 10:10 am 6.9 3.0 16.0SSE 6.6 6.7 WVERY_STEEP 5.6
2024-05-23 09:40 am 7.2 2.6 13.8WSW 6.6 6.7 WSWVERY_STEEP 5.5
2024-05-23 09:10 am 6.2 2.3 9.1SSW 5.9 6.7 WSW STEEP 5.3
2024-05-23 08:40 am 7.2 3.0 17.4 SE 6.6 6.7 WSWVERY_STEEP 5.4
2024-05-23 08:10 am 7.2 2.0 14.8NNW 6.9 6.7 WSWVERY_STEEP 5.2
2024-05-23 07:40 am 6.9 2.3 9.1SSW 6.6 6.2 WVERY_STEEP 5.3
2024-05-23 07:10 am 7.5 2.3 14.8 SW 7.2 5.9 WVERY_STEEP 5.3
2024-05-23 06:40 am 7.2 2.6 9.1SSW 6.9 5.9 WVERY_STEEP 5.2
2024-05-23 06:10 am 6.6 2.3 17.4 SW 6.2 5.6 WVERY_STEEP 5.1
2024-05-23 05:40 am 7.2 2.6 16.0WNW 6.9 6.2 WVERY_STEEP 5.1
2024-05-23 05:10 am 7.2 2.3 17.4 SW 6.9 6.7 WVERY_STEEP 5.3
2024-05-23 04:40 am 6.9 2.6 16.0 S 6.6 6.2 WVERY_STEEP 5.3
2024-05-23 04:10 am 7.9 2.3 16.0SSW 7.5 6.2 WVERY_STEEP 5.5
2024-05-23 03:40 am 6.9 2.6 17.4SSE 6.2 6.7 W STEEP 5.4
2024-05-23 03:10 am 6.9 2.6 9.1SSW 6.2 6.2 WVERY_STEEP 5.3
2024-05-23 02:40 am 6.2 2.6 9.1 SW 5.6 6.2 WSWVERY_STEEP 5.1
2024-05-23 02:10 am 6.2 2.6 17.4SSW 5.6 5.0 WSWVERY_STEEP 5.1
2024-05-23 01:40 am 5.2 2.6 17.4SSE 4.6 4.8 WSWVERY_STEEP 5.1
2024-05-23 01:10 am 5.2 3.0 17.4 S 4.3 7.1 S STEEP 5.2
2024-05-23 12:40 am 4.9 3.0 7.7SSW 3.6 6.2 S STEEP 5.2
2024-05-23 12:10 am 4.9 3.0 17.4SSW 3.9 7.1 SSW STEEP 5.5
2024-05-22 11:40 pm 4.9 3.0 9.1SSW 3.6 6.2 SSW STEEP 5.6
2024-05-22 11:10 pm 5.2 4.6 7.1 S 2.3 5.0 SSW STEEP 6.0
2024-05-22 10:40 pm 4.9 3.9 6.2SSW 3.0 4.0 SW STEEP 5.7
2024-05-22 10:10 pm 4.9 4.3 7.1 S 2.3 4.5 SSW STEEP 5.9
2024-05-22 09:40 pm 5.2 4.3 9.1 S 2.6 3.3 SW AVERAGE 5.9
2024-05-22 09:10 pm 5.2 4.6 6.2SSE 2.3 4.8 SSW STEEP 5.9
2024-05-22 08:40 pm 4.9 4.3 6.7SSW 2.6 4.8 SW STEEP 5.6
2024-05-22 08:10 pm 5.2 3.6 16.0 S 3.6 6.2 SSW STEEP 5.8

Plot of wave energy versus frequency (and period)